Time,TemperatureF,DewpointF,PressureIn,WindDirection,WindDirectionDegrees,WindSpeedMPH,WindSpeedGustMPH,Humidity,HourlyPrecipIn,Conditions,Clouds,dailyrainin,SoftwareType,DateUTC
2013-01-25 00:01:00,14.5,-1.1,30.42,ESE,119,5.4,8.9,49,0.00,,,0.00,VWS V14.01,2013-01-25 05:01:00,
2013-01-25 00:03:00,14.5,-1.1,30.42,SSE,147,6.0,10.1,49,0.00,,,0.00,VWS V14.01,2013-01-25 05:03:00,
2013-01-25 00:09:00,14.7,-1.0,30.42,ESE,112,8.1,13.4,49,0.00,,,0.00,VWS V14.01,2013-01-25 05:09:00,
2013-01-25 00:13:00,14.7,-1.0,30.42,ESE,110,5.4,10.1,49,0.00,,,0.00,VWS V14.01,2013-01-25 05:13:00,
2013-01-25 00:19:00,14.7,-1.0,30.42,ESE,117,6.0,10.1,49,0.00,,,0.00,VWS V14.01,2013-01-25 05:19:00,
2013-01-25 00:24:00,14.7,-1.0,30.42,SE,131,5.4,8.9,49,0.00,,,0.00,VWS V14.01,2013-01-25 05:24:00,
2013-01-25 00:31:00,14.9,-0.8,30.42,ESE,122,4.7,10.1,49,0.00,,,0.00,VWS V14.01,2013-01-25 05:31:00,
2013-01-25 00:36:00,14.9,-0.8,30.42,ESE,123,5.4,10.1,49,0.00,,,0.00,VWS V14.01,2013-01-25 05:36:00,
2013-01-25 00:41:00,14.9,-0.8,30.42,ESE,111,7.4,14.5,49,0.00,,,0.00,VWS V14.01,2013-01-25 05:41:00,
2013-01-25 00:47:00,14.9,-0.8,30.42,ESE,111,8.1,13.4,49,0.00,,,0.00,VWS V14.01,2013-01-25 05:47:00,
2013-01-25 00:52:00,14.9,-0.8,30.42,ESE,110,6.0,10.1,49,0.00,,,0.00,VWS V14.01,2013-01-25 05:52:00,
2013-01-25 00:58:00,14.9,-0.8,30.40,SE,137,6.0,12.3,49,0.00,,,0.00,VWS V14.01,2013-01-25 05:58:00,
2013-01-25 01:03:00,14.9,-0.8,30.40,ESE,109,5.4,8.9,49,0.00,,,0.00,VWS V14.01,2013-01-25 06:03:00,
2013-01-25 01:08:00,14.9,-0.8,30.40,SE,125,4.0,8.9,49,0.00,,,0.00,VWS V14.01,2013-01-25 06:08:00,
2013-01-25 01:13:00,14.9,-0.8,30.40,SE,124,4.7,10.1,49,0.00,,,0.00,VWS V14.01,2013-01-25 06:13:00,
2013-01-25 01:18:00,15.1,-0.6,30.40,ESE,123,6.0,11.2,49,0.00,,,0.00,VWS V14.01,2013-01-25 06:18:00,
2013-01-25 01:24:00,14.9,-0.8,30.40,SE,124,5.4,8.9,49,0.00,,,0.00,VWS V14.01,2013-01-25 06:24:00,
2013-01-25 01:29:00,15.1,-0.6,30.40,ESE,112,4.7,7.8,49,0.00,,,0.00,VWS V14.01,2013-01-25 06:29:00,
2013-01-25 01:35:00,15.1,-0.6,30.40,ESE,112,5.4,8.9,49,0.00,,,0.00,VWS V14.01,2013-01-25 06:35:00,
2013-01-25 01:41:00,15.1,-0.6,30.40,ESE,118,4.7,7.8,49,0.00,,,0.00,VWS V14.01,2013-01-25 06:41:00,
2013-01-25 01:46:00,15.1,-0.2,30.40,ESE,115,4.0,10.1,50,0.00,,,0.00,VWS V14.01,2013-01-25 06:46:00,
2013-01-25 01:51:00,15.1,-0.2,30.40,SE,133,4.0,8.9,50,0.00,,,0.00,VWS V14.01,2013-01-25 06:51:00,
2013-01-25 01:57:00,15.1,-0.2,30.40,SE,131,4.0,8.9,50,0.00,,,0.00,VWS V14.01,2013-01-25 06:57:00,
2013-01-25 02:02:00,15.3,0.0,30.40,ESE,106,4.0,8.9,50,0.00,,,0.00,VWS V14.01,2013-01-25 07:02:00,
2013-01-25 02:07:00,15.3,0.0,30.40,SE,127,4.0,8.9,50,0.00,,,0.00,VWS V14.01,2013-01-25 07:07:00,
2013-01-25 02:13:00,15.3,0.0,30.40,SE,129,4.7,10.1,50,0.00,,,0.00,VWS V14.01,2013-01-25 07:13:00,
2013-01-25 02:19:00,15.3,0.0,30.40,SE,129,5.4,8.9,50,0.00,,,0.00,VWS V14.01,2013-01-25 07:19:00,
2013-01-25 02:24:00,15.3,0.0,30.40,ESE,113,4.7,10.1,50,0.00,,,0.00,VWS V14.01,2013-01-25 07:24:00,
2013-01-25 02:29:00,15.3,0.4,30.40,ESE,123,6.0,13.4,51,0.00,,,0.00,VWS V14.01,2013-01-25 07:29:00,
2013-01-25 02:34:00,15.3,0.4,30.40,ESE,122,8.7,14.5,51,0.00,,,0.00,VWS V14.01,2013-01-25 07:34:00,
2013-01-25 02:41:00,15.3,0.0,30.37,ESE,116,8.1,14.5,50,0.00,,,0.00,VWS V14.01,2013-01-25 07:41:00,
2013-01-25 02:46:00,15.3,0.0,30.37,ESE,112,6.0,13.4,50,0.00,,,0.00,VWS V14.01,2013-01-25 07:46:00,
2013-01-25 02:51:00,15.3,0.0,30.37,ESE,117,6.0,14.5,50,0.00,,,0.00,VWS V14.01,2013-01-25 07:51:00,
2013-01-25 02:57:00,15.3,0.4,30.37,ESE,115,6.7,14.5,51,0.00,,,0.00,VWS V14.01,2013-01-25 07:57:00,
2013-01-25 03:02:00,15.3,0.4,30.37,SSE,147,5.4,13.4,51,0.00,,,0.00,VWS V14.01,2013-01-25 08:02:00,
2013-01-25 03:08:00,15.3,0.4,30.37,ESE,106,7.4,12.3,51,0.00,,,0.00,VWS V14.01,2013-01-25 08:08:00,
2013-01-25 03:13:00,15.3,0.4,30.37,ESE,117,6.0,15.7,51,0.00,,,0.00,VWS V14.01,2013-01-25 08:13:00,
2013-01-25 03:19:00,15.4,0.6,30.37,SSE,158,8.1,15.7,51,0.00,,,0.00,VWS V14.01,2013-01-25 08:19:00,
2013-01-25 03:26:00,15.4,0.6,30.34,ESE,111,8.7,14.5,51,0.00,,,0.00,VWS V14.01,2013-01-25 08:26:00,
2013-01-25 03:31:00,15.4,0.6,30.34,SE,145,6.7,13.4,51,0.00,,,0.00,VWS V14.01,2013-01-25 08:31:00,
2013-01-25 03:36:00,15.4,1.0,30.34,East,100,4.7,14.5,52,0.00,,,0.00,VWS V14.01,2013-01-25 08:36:00,
2013-01-25 03:42:00,15.4,1.0,30.34,SE,136,8.1,15.7,52,0.00,,,0.00,VWS V14.01,2013-01-25 08:42:00,
2013-01-25 03:48:00,15.4,1.0,30.34,SE,142,8.1,15.7,52,0.00,,,0.00,VWS V14.01,2013-01-25 08:48:00,
2013-01-25 03:54:00,15.4,1.4,30.31,SE,132,5.4,14.5,53,0.00,,,0.00,VWS V14.01,2013-01-25 08:54:00,
2013-01-25 04:01:00,15.4,1.4,30.31,ESE,104,6.0,13.4,53,0.00,,,0.00,VWS V14.01,2013-01-25 09:01:00,
2013-01-25 04:06:00,15.4,1.4,30.31,SE,145,6.0,13.4,53,0.00,,,0.00,VWS V14.01,2013-01-25 09:06:00,
2013-01-25 04:11:00,15.4,1.4,30.31,SE,137,6.7,11.2,53,0.00,,,0.00,VWS V14.01,2013-01-25 09:11:00,
2013-01-25 04:16:00,15.4,1.8,30.31,ESE,116,4.7,13.4,54,0.00,,,0.00,VWS V14.01,2013-01-25 09:16:00,
2013-01-25 04:22:00,15.4,1.8,30.31,ESE,118,5.4,15.7,54,0.00,,,0.00,VWS V14.01,2013-01-25 09:22:00,
2013-01-25 04:28:00,15.6,2.0,30.28,ESE,109,7.4,13.4,54,0.00,,,0.00,VWS V14.01,2013-01-25 09:28:00,
2013-01-25 04:33:00,15.6,2.0,30.28,East,101,9.4,15.7,54,0.00,,,0.00,VWS V14.01,2013-01-25 09:33:00,
2013-01-25 04:38:00,15.6,2.0,30.28,ESE,115,7.4,13.4,54,0.00,,,0.00,VWS V14.01,2013-01-25 09:38:00,
2013-01-25 04:43:00,15.6,2.0,30.28,SE,144,6.0,10.1,54,0.00,,,0.00,VWS V14.01,2013-01-25 09:43:00,
2013-01-25 04:48:00,15.6,2.0,30.28,ESE,119,4.7,12.3,54,0.00,,,0.00,VWS V14.01,2013-01-25 09:48:00,
2013-01-25 04:54:00,15.6,2.0,30.28,SE,144,6.0,10.1,54,0.00,,,0.00,VWS V14.01,2013-01-25 09:54:00,
2013-01-25 04:59:00,15.6,2.3,30.28,SE,133,5.4,10.1,55,0.00,,,0.00,VWS V14.01,2013-01-25 09:59:00,
2013-01-25 05:04:00,15.6,2.3,30.28,ESE,117,7.4,12.3,55,0.00,,,0.00,VWS V14.01,2013-01-25 10:04:00,
2013-01-25 05:11:00,15.6,2.3,30.25,ESE,118,5.4,10.1,55,0.00,,,0.00,VWS V14.01,2013-01-25 10:11:00,
2013-01-25 05:16:00,15.6,2.3,30.25,ESE,120,5.4,10.1,55,0.00,,,0.00,VWS V14.01,2013-01-25 10:16:00,
2013-01-25 05:21:00,15.6,2.3,30.25,SE,127,7.4,13.4,55,0.00,,,0.00,VWS V14.01,2013-01-25 10:21:00,
2013-01-25 05:26:00,15.6,2.3,30.25,SE,125,4.7,10.1,55,0.00,,,0.00,VWS V14.01,2013-01-25 10:26:00,
2013-01-25 05:31:00,15.6,2.3,30.25,ESE,107,4.7,12.3,55,0.00,,,0.00,VWS V14.01,2013-01-25 10:31:00,
2013-01-25 05:36:00,15.6,2.3,30.25,SSE,157,4.7,12.3,55,0.00,,,0.00,VWS V14.01,2013-01-25 10:36:00,
2013-01-25 05:42:00,15.8,2.5,30.22,SE,127,5.4,11.2,55,0.00,,,0.00,VWS V14.01,2013-01-25 10:42:00,
2013-01-25 05:48:00,15.8,2.9,30.22,SE,125,4.7,10.1,56,0.00,,,0.00,VWS V14.01,2013-01-25 10:48:00,
2013-01-25 05:53:00,15.8,2.9,30.22,ESE,108,6.0,13.4,56,0.00,,,0.00,VWS V14.01,2013-01-25 10:53:00,
2013-01-25 05:58:00,15.8,2.9,30.22,East,101,4.7,8.9,56,0.00,,,0.00,VWS V14.01,2013-01-25 10:58:00,
2013-01-25 06:03:00,15.8,2.9,30.22,ESE,120,6.7,11.2,56,0.00,,,0.00,VWS V14.01,2013-01-25 11:03:00,
2013-01-25 06:08:00,16.0,3.1,30.22,ESE,110,5.4,12.3,56,0.00,,,0.00,VWS V14.01,2013-01-25 11:08:00,
2013-01-25 06:14:00,16.0,3.1,30.22,ESE,103,4.7,10.1,56,0.00,,,0.00,VWS V14.01,2013-01-25 11:14:00,
2013-01-25 06:19:00,16.0,3.1,30.22,SE,128,8.1,13.4,56,0.00,,,0.00,VWS V14.01,2013-01-25 11:19:00,
2013-01-25 06:24:00,16.0,3.1,30.22,SE,131,4.7,10.1,56,0.00,,,0.00,VWS V14.01,2013-01-25 11:24:00,
2013-01-25 06:29:00,16.0,3.1,30.22,ESE,123,5.4,10.1,56,0.00,,,0.00,VWS V14.01,2013-01-25 11:29:00,
2013-01-25 06:36:00,16.0,3.1,30.22,ESE,115,6.0,10.1,56,0.00,,,0.00,VWS V14.01,2013-01-25 11:36:00,
2013-01-25 06:41:00,16.0,3.5,30.22,SE,128,4.0,8.9,57,0.00,,,0.00,VWS V14.01,2013-01-25 11:41:00,
2013-01-25 06:46:00,16.0,3.5,30.22,ESE,123,5.4,8.9,57,0.00,,,0.00,VWS V14.01,2013-01-25 11:46:00,
2013-01-25 06:52:00,16.0,3.5,30.22,SE,142,4.0,12.3,57,0.00,,,0.00,VWS V14.01,2013-01-25 11:52:00,
2013-01-25 06:57:00,16.0,3.5,30.19,SE,125,6.0,10.1,57,0.00,,,0.00,VWS V14.01,2013-01-25 11:57:00,
2013-01-25 07:02:00,16.2,3.6,30.19,ESE,119,5.4,10.1,57,0.00,,,0.00,VWS V14.01,2013-01-25 12:02:00,
2013-01-25 07:07:00,16.2,3.6,30.19,SE,135,6.0,13.4,57,0.00,,,0.00,VWS V14.01,2013-01-25 12:07:00,
2013-01-25 07:13:00,16.2,4.0,30.19,SSE,152,6.0,10.1,58,0.00,,,0.00,VWS V14.01,2013-01-25 12:13:00,
2013-01-25 07:18:00,16.2,4.0,30.19,SE,138,6.0,10.1,58,0.00,,,0.00,VWS V14.01,2013-01-25 12:18:00,
2013-01-25 07:23:00,16.2,4.0,30.19,SE,131,6.7,11.2,58,0.00,,,0.00,VWS V14.01,2013-01-25 12:23:00,
2013-01-25 07:28:00,16.2,4.4,30.19,SE,124,5.4,13.4,59,0.00,,,0.00,VWS V14.01,2013-01-25 12:28:00,
2013-01-25 07:33:00,16.2,4.4,30.19,SE,126,7.4,12.3,59,0.00,,,0.00,VWS V14.01,2013-01-25 12:33:00,
2013-01-25 07:38:00,16.2,4.7,30.19,SE,144,3.4,10.1,60,0.00,,,0.00,VWS V14.01,2013-01-25 12:38:00,
2013-01-25 07:43:00,16.0,4.6,30.19,SE,142,5.4,8.9,60,0.00,,,0.00,VWS V14.01,2013-01-25 12:43:00,
2013-01-25 07:49:00,16.0,4.9,30.19,SSE,152,4.7,8.9,61,0.00,,,0.00,VWS V14.01,2013-01-25 12:49:00,
2013-01-25 07:54:00,16.0,4.9,30.19,SE,137,4.0,8.9,61,0.00,,,0.00,VWS V14.01,2013-01-25 12:54:00,
2013-01-25 07:59:00,16.0,4.9,30.19,SE,127,4.0,6.7,61,0.00,,,0.00,VWS V14.01,2013-01-25 12:59:00,
2013-01-25 08:04:00,16.0,5.3,30.19,SE,124,4.0,6.7,62,0.00,,,0.00,VWS V14.01,2013-01-25 13:04:00,
2013-01-25 08:11:00,16.2,5.4,30.19,SE,146,0.0,0.0,62,0.00,,,0.00,VWS V14.01,2013-01-25 13:11:00,
2013-01-25 08:16:00,16.2,5.4,30.19,SE,138,0.0,0.0,62,0.00,,,0.00,VWS V14.01,2013-01-25 13:16:00,
2013-01-25 08:21:00,16.3,5.6,30.19,SE,125,4.0,7.8,62,0.00,,,0.00,VWS V14.01,2013-01-25 13:21:00,
2013-01-25 08:27:00,16.3,6.0,30.19,ESE,119,4.0,8.9,63,0.00,,,0.00,VWS V14.01,2013-01-25 13:27:00,
2013-01-25 08:32:00,16.5,6.1,30.19,SE,129,4.7,7.8,63,0.00,,,0.00,VWS V14.01,2013-01-25 13:32:00,
2013-01-25 08:38:00,16.5,6.1,30.19,SE,141,5.4,10.1,63,0.00,,,0.00,VWS V14.01,2013-01-25 13:38:00,
2013-01-25 08:44:00,16.7,6.7,30.16,SSE,149,4.7,10.1,64,0.00,,,0.00,VWS V14.01,2013-01-25 13:44:00,
2013-01-25 08:49:00,16.9,6.8,30.16,SSE,147,4.7,13.4,64,0.00,,,0.00,VWS V14.01,2013-01-25 13:49:00,
2013-01-25 08:54:00,17.1,7.0,30.16,ESE,115,4.0,10.1,64,0.00,,,0.00,VWS V14.01,2013-01-25 13:54:00,
2013-01-25 08:59:00,17.2,7.5,30.16,SE,138,4.7,8.9,65,0.00,,,0.00,VWS V14.01,2013-01-25 13:59:00,
2013-01-25 09:04:00,17.1,7.3,30.16,ESE,119,4.7,10.1,65,0.00,,,0.00,VWS V14.01,2013-01-25 14:04:00,
2013-01-25 09:11:00,17.1,7.3,30.16,SSE,153,4.0,10.1,65,0.00,,,0.00,VWS V14.01,2013-01-25 14:11:00,
2013-01-25 09:16:00,17.4,7.7,30.16,SSE,155,5.4,10.1,65,0.00,,,0.00,VWS V14.01,2013-01-25 14:16:00,
2013-01-25 09:21:00,18.0,8.2,30.16,SE,143,5.4,10.1,65,0.00,,,0.00,VWS V14.01,2013-01-25 14:21:00,
2013-01-25 09:27:00,18.5,8.7,30.16,SE,142,5.4,8.9,65,0.00,,,0.00,VWS V14.01,2013-01-25 14:27:00,
2013-01-25 09:33:00,18.7,8.9,30.16,SSE,168,4.7,7.8,65,0.00,,,0.00,VWS V14.01,2013-01-25 14:33:00,
2013-01-25 09:38:00,19.0,9.2,30.13,SE,142,4.7,8.9,65,0.00,,,0.00,VWS V14.01,2013-01-25 14:38:00,
2013-01-25 09:44:00,19.4,9.2,30.13,SE,146,6.0,10.1,64,0.00,,,0.00,VWS V14.01,2013-01-25 14:44:00,
2013-01-25 09:49:00,19.8,9.6,30.13,SE,143,5.4,10.1,64,0.00,,,0.00,VWS V14.01,2013-01-25 14:49:00,
2013-01-25 09:56:00,19.9,9.4,30.13,ESE,112,8.1,13.4,63,0.00,,,0.00,VWS V14.01,2013-01-25 14:56:00,
2013-01-25 10:01:00,20.3,9.7,30.13,SE,127,5.4,8.9,63,0.00,,,0.00,VWS V14.01,2013-01-25 15:01:00,
2013-01-25 10:06:00,20.7,10.1,30.13,SE,140,4.7,10.1,63,0.00,,,0.00,VWS V14.01,2013-01-25 15:06:00,
2013-01-25 10:12:00,21.0,10.1,30.13,ESE,117,4.7,8.9,62,0.00,,,0.00,VWS V14.01,2013-01-25 15:12:00,
2013-01-25 10:17:00,21.2,10.2,30.13,SSE,158,4.0,8.9,62,0.00,,,0.00,VWS V14.01,2013-01-25 15:17:00,
2013-01-25 10:22:00,21.6,10.2,30.13,SE,135,4.0,8.9,61,0.00,,,0.00,VWS V14.01,2013-01-25 15:22:00,
2013-01-25 10:27:00,21.7,10.4,30.13,SSE,149,5.4,8.9,61,0.00,,,0.00,VWS V14.01,2013-01-25 15:27:00,
2013-01-25 10:32:00,21.2,9.9,30.13,South,180,6.0,15.7,61,0.00,,,0.00,VWS V14.01,2013-01-25 15:32:00,
2013-01-25 10:37:00,20.8,9.2,30.13,South,187,7.4,14.5,60,0.00,,,0.00,VWS V14.01,2013-01-25 15:37:00,
2013-01-25 10:42:00,21.4,9.3,30.13,South,179,8.1,13.4,59,0.00,,,0.00,VWS V14.01,2013-01-25 15:42:00,
2013-01-25 10:48:00,23.0,10.8,30.13,ESE,121,5.4,12.3,59,0.00,,,0.00,VWS V14.01,2013-01-25 15:48:00,
2013-01-25 10:53:00,24.1,11.8,30.13,SE,141,7.4,13.4,59,0.00,,,0.00,VWS V14.01,2013-01-25 15:53:00,
2013-01-25 10:58:00,24.4,11.8,30.13,SE,125,4.7,13.4,58,0.00,,,0.00,VWS V14.01,2013-01-25 15:58:00,
2013-01-25 11:04:00,24.4,11.4,30.13,SE,134,3.4,8.9,57,0.00,,,0.00,VWS V14.01,2013-01-25 16:04:00,
2013-01-25 11:09:00,24.1,10.7,30.13,ESE,108,4.7,15.7,56,0.00,,,0.00,VWS V14.01,2013-01-25 16:09:00,
2013-01-25 11:16:00,24.3,10.4,30.13,South,188,5.4,13.4,55,0.00,,,0.00,VWS V14.01,2013-01-25 16:16:00,
2013-01-25 11:21:00,24.4,10.6,30.13,SE,146,8.7,14.5,55,0.00,,,0.00,VWS V14.01,2013-01-25 16:21:00,
2013-01-25 11:26:00,24.8,10.9,30.10,South,178,4.0,10.1,55,0.00,,,0.00,VWS V14.01,2013-01-25 16:26:00,
2013-01-25 11:31:00,25.3,11.0,30.10,SE,137,4.0,10.1,54,0.00,,,0.00,VWS V14.01,2013-01-25 16:31:00,
2013-01-25 11:36:00,25.3,11.0,30.10,South,171,4.0,8.9,54,0.00,,,0.00,VWS V14.01,2013-01-25 16:36:00,
2013-01-25 11:41:00,26.1,11.7,30.10,South,177,8.1,13.4,54,0.00,,,0.00,VWS V14.01,2013-01-25 16:41:00,
2013-01-25 11:47:00,25.5,10.8,30.10,SSW,205,5.4,15.7,53,0.00,,,0.00,VWS V14.01,2013-01-25 16:47:00,
2013-01-25 11:53:00,26.1,11.3,30.10,SSE,153,7.4,12.3,53,0.00,,,0.00,VWS V14.01,2013-01-25 16:53:00,
2013-01-25 11:58:00,26.4,11.6,30.10,SSE,151,4.0,14.5,53,0.00,,,0.00,VWS V14.01,2013-01-25 16:58:00,
2013-01-25 12:04:00,26.8,11.5,30.10,SSE,161,4.0,10.1,52,0.00,,,0.00,VWS V14.01,2013-01-25 17:04:00,
2013-01-25 12:09:00,27.0,11.7,30.10,SSE,151,8.1,13.4,52,0.00,,,0.00,VWS V14.01,2013-01-25 17:09:00,
2013-01-25 12:16:00,27.0,11.3,30.07,SSE,148,6.0,10.1,51,0.00,,,0.00,VWS V14.01,2013-01-25 17:16:00,
2013-01-25 12:21:00,27.0,11.3,30.07,SE,141,4.0,10.1,51,0.00,,,0.00,VWS V14.01,2013-01-25 17:21:00,
2013-01-25 12:27:00,26.8,10.6,30.07,South,171,3.4,10.1,50,0.00,,,0.00,VWS V14.01,2013-01-25 17:27:00,
2013-01-25 12:32:00,27.1,11.0,30.07,SSW,206,4.0,7.8,50,0.00,,,0.00,VWS V14.01,2013-01-25 17:32:00,
2013-01-25 12:37:00,27.1,11.0,30.07,WSW,256,4.7,14.5,50,0.00,,,0.00,VWS V14.01,2013-01-25 17:37:00,
2013-01-25 12:43:00,27.9,11.6,30.07,South,180,5.4,10.1,50,0.00,,,0.00,VWS V14.01,2013-01-25 17:43:00,
2013-01-25 12:48:00,27.9,11.6,30.07,SW,215,9.4,15.7,50,0.00,,,0.00,VWS V14.01,2013-01-25 17:48:00,
2013-01-25 12:53:00,27.7,11.0,30.04,South,190,5.4,15.7,49,0.00,,,0.00,VWS V14.01,2013-01-25 17:53:00,
2013-01-25 12:58:00,28.2,11.5,30.04,South,190,0.0,8.9,49,0.00,,,0.00,VWS V14.01,2013-01-25 17:58:00,
2013-01-25 13:04:00,28.2,11.5,30.04,SSE,166,5.4,10.1,49,0.00,,,0.00,VWS V14.01,2013-01-25 18:04:00,
2013-01-25 13:11:00,28.4,11.7,30.04,South,186,9.4,20.1,49,0.00,,,0.00,VWS V14.01,2013-01-25 18:11:00,
2013-01-25 13:16:00,28.2,10.6,30.04,South,169,5.4,10.1,47,0.00,,,0.00,VWS V14.01,2013-01-25 18:16:00,
2013-01-25 13:21:00,28.0,10.9,30.04,SSW,197,6.0,10.1,48,0.00,,,0.00,VWS V14.01,2013-01-25 18:21:00,
2013-01-25 13:27:00,27.9,10.3,30.04,SSW,198,5.4,14.5,47,0.00,,,0.00,VWS V14.01,2013-01-25 18:27:00,
2013-01-25 13:33:00,28.0,10.9,30.04,SSW,208,4.0,8.9,48,0.00,,,0.00,VWS V14.01,2013-01-25 18:33:00,
2013-01-25 13:39:00,27.9,10.7,30.01,SSW,212,5.4,13.4,48,0.00,,,0.00,VWS V14.01,2013-01-25 18:39:00,
2013-01-25 13:46:00,28.0,10.9,30.01,South,190,4.7,8.9,48,0.00,,,0.00,VWS V14.01,2013-01-25 18:46:00,
2013-01-25 13:51:00,27.9,10.7,30.01,South,180,4.7,10.1,48,0.00,,,0.00,VWS V14.01,2013-01-25 18:51:00,
2013-01-25 13:56:00,27.5,9.9,30.01,SSW,210,0.0,0.0,47,0.00,,,0.00,VWS V14.01,2013-01-25 18:56:00,
2013-01-25 14:02:00,27.9,10.7,30.01,SW,219,0.0,0.0,48,0.00,,,0.00,VWS V14.01,2013-01-25 19:02:00,
2013-01-25 14:08:00,27.9,10.7,30.01,SSW,208,0.0,0.0,48,0.00,,,0.00,VWS V14.01,2013-01-25 19:08:00,
2013-01-25 14:14:00,27.5,10.4,30.01,SE,143,0.0,0.0,48,0.00,,,0.00,VWS V14.01,2013-01-25 19:14:00,
2013-01-25 14:19:00,27.1,10.1,30.01,SSW,198,4.0,14.5,48,0.00,,,0.00,VWS V14.01,2013-01-25 19:19:00,
2013-01-25 14:26:00,27.1,10.1,30.01,SSW,210,0.0,0.0,48,0.00,,,0.00,VWS V14.01,2013-01-25 19:26:00,
2013-01-25 14:31:00,27.0,9.9,30.01,SW,235,0.0,6.7,48,0.00,,,0.00,VWS V14.01,2013-01-25 19:31:00,
2013-01-25 14:36:00,27.0,10.4,30.01,SSW,200,4.7,8.9,49,0.00,,,0.00,VWS V14.01,2013-01-25 19:36:00,
2013-01-25 14:42:00,26.6,10.5,30.01,SSW,199,4.7,7.8,50,0.00,,,0.00,VWS V14.01,2013-01-25 19:42:00,
2013-01-25 14:47:00,26.2,9.7,30.01,South,169,4.7,7.8,49,0.00,,,0.00,VWS V14.01,2013-01-25 19:47:00,
2013-01-25 14:53:00,26.2,10.1,30.01,SSW,207,4.0,8.9,50,0.00,,,0.00,VWS V14.01,2013-01-25 19:53:00,
2013-01-25 14:58:00,26.1,10.0,30.01,SSW,207,4.7,10.1,50,0.00,,,0.00,VWS V14.01,2013-01-25 19:58:00,
2013-01-25 15:03:00,26.1,10.0,30.01,SW,216,3.4,105.7,50,0.00,,,0.00,VWS V14.01,2013-01-25 20:03:00,
2013-01-25 15:09:00,26.4,10.8,29.98,SSW,193,5.4,10.1,51,0.00,,,0.00,VWS V14.01,2013-01-25 20:09:00,
2013-01-25 15:14:00,26.1,10.4,29.98,SSW,210,6.0,10.1,51,0.00,,,0.00,VWS V14.01,2013-01-25 20:14:00,
2013-01-25 15:19:00,26.1,10.4,29.98,SSW,209,0.0,0.0,51,0.00,,,0.00,VWS V14.01,2013-01-25 20:19:00,
2013-01-25 15:24:00,26.1,10.4,29.98,SSW,206,0.0,0.0,51,0.00,,,0.00,VWS V14.01,2013-01-25 20:24:00,
2013-01-25 15:31:00,25.9,10.3,29.98,SW,229,0.0,7.8,51,0.00,,,0.00,VWS V14.01,2013-01-25 20:31:00,
2013-01-25 15:36:00,25.3,9.8,29.98,South,189,0.0,7.8,51,0.00,,,0.00,VWS V14.01,2013-01-25 20:36:00,
2013-01-25 15:41:00,25.3,9.8,29.98,SW,222,0.0,7.8,51,0.00,,,0.00,VWS V14.01,2013-01-25 20:41:00,
2013-01-25 15:47:00,25.5,10.4,29.98,SW,236,3.4,7.8,52,0.00,,,0.00,VWS V14.01,2013-01-25 20:47:00,
2013-01-25 15:52:00,25.3,10.2,29.98,SW,228,4.7,7.8,52,0.00,,,0.00,VWS V14.01,2013-01-25 20:52:00,
2013-01-25 15:58:00,25.3,10.2,29.98,SW,225,4.0,6.7,52,0.00,,,0.00,VWS V14.01,2013-01-25 20:58:00,
2013-01-25 16:03:00,24.8,9.7,29.98,SW,223,0.0,6.7,52,0.00,,,0.00,VWS V14.01,2013-01-25 21:03:00,
2013-01-25 16:08:00,24.6,9.9,29.98,South,187,3.4,6.7,53,0.00,,,0.00,VWS V14.01,2013-01-25 21:08:00,
2013-01-25 16:13:00,24.3,9.6,29.98,SSW,205,0.0,0.0,53,0.00,,,0.00,VWS V14.01,2013-01-25 21:13:00,
2013-01-25 16:18:00,24.3,9.6,29.98,SW,221,4.7,8.9,53,0.00,,,0.00,VWS V14.01,2013-01-25 21:18:00,
2013-01-25 16:23:00,23.9,9.3,29.98,SW,225,4.0,7.8,53,0.00,,,0.00,VWS V14.01,2013-01-25 21:23:00,
2013-01-25 16:29:00,23.9,9.3,30.01,SW,217,0.0,8.9,53,0.00,,,0.00,VWS V14.01,2013-01-25 21:29:00,
2013-01-25 16:34:00,23.7,9.5,30.01,SW,222,4.0,6.7,54,0.00,,,0.00,VWS V14.01,2013-01-25 21:34:00,
2013-01-25 16:39:00,23.5,9.4,29.98,SW,223,4.0,10.1,54,0.00,,,0.00,VWS V14.01,2013-01-25 21:39:00,
2013-01-25 16:46:00,23.2,9.0,29.98,South,178,4.0,7.8,54,0.00,,,0.00,VWS V14.01,2013-01-25 21:46:00,
2013-01-25 16:51:00,23.2,9.0,29.98,SW,229,0.0,0.0,54,0.00,,,0.00,VWS V14.01,2013-01-25 21:51:00,
2013-01-25 16:56:00,23.0,9.2,30.01,SW,222,0.0,0.0,55,0.00,,,0.00,VWS V14.01,2013-01-25 21:56:00,
2013-01-25 17:01:00,22.8,9.1,30.01,SW,226,0.0,6.7,55,0.00,,,0.00,VWS V14.01,2013-01-25 22:01:00,
2013-01-25 17:06:00,22.8,9.1,30.01,SSW,211,0.0,8.9,55,0.00,,,0.00,VWS V14.01,2013-01-25 22:06:00,
2013-01-25 17:12:00,22.5,9.1,30.01,SE,138,5.4,14.5,56,0.00,,,0.00,VWS V14.01,2013-01-25 22:12:00,
2013-01-25 17:17:00,22.5,9.1,30.01,South,190,4.7,10.1,56,0.00,,,0.00,VWS V14.01,2013-01-25 22:17:00,
2013-01-25 17:23:00,22.3,9.0,30.01,SW,217,0.0,12.3,56,0.00,,,0.00,VWS V14.01,2013-01-25 22:23:00,
2013-01-25 17:29:00,22.1,9.2,30.01,South,186,0.0,10.1,57,0.00,,,0.00,VWS V14.01,2013-01-25 22:29:00,
2013-01-25 17:35:00,21.9,9.0,30.01,SSE,151,5.4,10.1,57,0.00,,,0.00,VWS V14.01,2013-01-25 22:35:00,
2013-01-25 17:41:00,21.9,9.4,29.98,South,183,4.0,12.3,58,0.00,,,0.00,VWS V14.01,2013-01-25 22:41:00,
2013-01-25 17:46:00,21.9,9.4,29.98,WSW,246,4.0,7.8,58,0.00,,,0.00,VWS V14.01,2013-01-25 22:46:00,
2013-01-25 17:51:00,21.7,9.2,29.98,South,179,3.4,10.1,58,0.00,,,0.00,VWS V14.01,2013-01-25 22:51:00,
2013-01-25 17:56:00,21.7,9.6,29.98,SSE,155,4.0,7.8,59,0.00,,,0.00,VWS V14.01,2013-01-25 22:56:00,
2013-01-25 18:01:00,21.7,9.6,29.98,SSW,193,4.7,12.3,59,0.00,,,0.00,VWS V14.01,2013-01-25 23:01:00,
2013-01-25 18:07:00,21.7,10.0,29.98,South,175,8.7,14.5,60,0.00,,,0.00,VWS V14.01,2013-01-25 23:07:00,
2013-01-25 18:12:00,21.6,9.8,29.98,SSW,195,0.0,6.7,60,0.00,,,0.00,VWS V14.01,2013-01-25 23:12:00,
2013-01-25 18:18:00,21.6,10.2,29.98,SSW,197,4.7,8.9,61,0.00,,,0.00,VWS V14.01,2013-01-25 23:18:00,
2013-01-25 18:23:00,21.6,10.2,30.01,SSE,150,3.4,7.8,61,0.00,,,0.00,VWS V14.01,2013-01-25 23:23:00,
2013-01-25 18:29:00,21.6,10.6,30.01,SW,230,4.7,14.5,62,0.00,,,0.00,VWS V14.01,2013-01-25 23:29:00,
2013-01-25 18:36:00,21.6,10.9,30.01,SW,216,6.7,13.4,63,0.00,,,0.00,VWS V14.01,2013-01-25 23:36:00,
2013-01-25 18:41:00,21.6,10.9,30.01,South,176,4.7,14.5,63,0.00,,,0.00,VWS V14.01,2013-01-25 23:41:00,
2013-01-25 18:47:00,21.6,11.3,30.01,SW,217,0.0,0.0,64,0.00,,,0.00,VWS V14.01,2013-01-25 23:47:00,
2013-01-25 18:52:00,21.7,11.4,30.01,SSW,213,0.0,0.0,64,0.00,,,0.00,VWS V14.01,2013-01-25 23:52:00,
2013-01-25 18:57:00,21.7,11.4,30.01,WSW,241,0.0,8.9,64,0.00,,,0.00,VWS V14.01,2013-01-25 23:57:00,
2013-01-25 19:02:00,21.9,12.0,30.01,SSW,213,0.0,6.7,65,0.00,,,0.00,VWS V14.01,2013-01-26 00:02:00,
2013-01-25 19:08:00,21.9,12.0,30.01,SSE,154,7.4,12.3,65,0.00,,,0.00,VWS V14.01,2013-01-26 00:08:00,
2013-01-25 19:14:00,21.9,12.3,30.01,SW,228,4.0,6.7,66,0.00,,,0.00,VWS V14.01,2013-01-26 00:14:00,
2013-01-25 19:19:00,21.9,12.3,30.01,SSW,208,0.0,7.8,66,0.00,,,0.00,VWS V14.01,2013-01-26 00:19:00,
2013-01-25 19:26:00,21.9,12.7,30.01,SW,216,4.0,8.9,67,0.00,,,0.00,VWS V14.01,2013-01-26 00:26:00,
2013-01-25 19:31:00,21.9,12.7,30.01,SSW,211,4.7,7.8,67,0.00,,,0.00,VWS V14.01,2013-01-26 00:31:00,
2013-01-25 19:37:00,22.1,13.2,30.01,SW,222,4.0,6.7,68,0.00,,,0.00,VWS V14.01,2013-01-26 00:37:00,
2013-01-25 19:42:00,22.1,13.2,30.01,SW,233,4.0,6.7,68,0.00,,,0.00,VWS V14.01,2013-01-26 00:42:00,
2013-01-25 19:47:00,22.1,13.2,30.01,SW,227,4.0,7.8,68,0.00,,,0.00,VWS V14.01,2013-01-26 00:47:00,
2013-01-25 19:53:00,22.1,13.5,30.01,SW,231,4.0,7.8,69,0.00,,,0.00,VWS V14.01,2013-01-26 00:53:00,
2013-01-25 19:58:00,22.1,13.5,30.01,WSW,241,5.4,10.1,69,0.00,,,0.00,VWS V14.01,2013-01-26 00:58:00,
2013-01-25 20:04:00,22.3,14.0,30.01,SW,236,4.7,8.9,70,0.00,,,0.00,VWS V14.01,2013-01-26 01:04:00,
2013-01-25 20:11:00,22.3,14.0,30.01,WSW,237,4.0,8.9,70,0.00,,,0.00,VWS V14.01,2013-01-26 01:11:00,
2013-01-25 20:16:00,22.3,14.3,30.01,SW,231,4.7,10.1,71,0.00,,,0.00,VWS V14.01,2013-01-26 01:16:00,
2013-01-25 20:21:00,22.3,14.3,30.01,SW,221,4.0,10.1,71,0.00,,,0.00,VWS V14.01,2013-01-26 01:21:00,
2013-01-25 20:26:00,22.3,14.3,30.01,SW,230,4.7,13.4,71,0.00,,,0.00,VWS V14.01,2013-01-26 01:26:00,
2013-01-25 20:31:00,22.3,14.6,30.01,SW,231,4.0,7.8,72,0.00,,,0.00,VWS V14.01,2013-01-26 01:31:00,
2013-01-25 20:37:00,22.3,14.6,30.01,SW,233,4.7,7.8,72,0.00,,,0.00,VWS V14.01,2013-01-26 01:37:00,
2013-01-25 20:42:00,22.3,14.6,30.01,SW,232,5.4,10.1,72,0.00,,,0.00,VWS V14.01,2013-01-26 01:42:00,
2013-01-25 20:48:00,22.3,15.0,30.01,SW,223,5.4,8.9,73,0.00,,,0.00,VWS V14.01,2013-01-26 01:48:00,
2013-01-25 20:54:00,22.3,15.0,30.01,SW,222,4.0,10.1,73,0.00,,,0.00,VWS V14.01,2013-01-26 01:54:00,
2013-01-25 21:01:00,22.5,15.1,30.01,WSW,237,4.7,8.9,73,0.00,,,0.00,VWS V14.01,2013-01-26 02:01:00,
2013-01-25 21:06:00,22.5,15.1,30.01,SW,229,4.0,10.1,73,0.00,,,0.00,VWS V14.01,2013-01-26 02:06:00,
2013-01-25 21:11:00,22.5,15.1,30.01,WSW,239,4.0,6.7,73,0.00,,,0.00,VWS V14.01,2013-01-26 02:11:00,
2013-01-25 21:17:00,22.6,15.3,30.01,SW,236,4.0,6.7,73,0.00,,,0.00,VWS V14.01,2013-01-26 02:17:00,
2013-01-25 21:22:00,22.6,15.6,30.01,SW,230,3.4,6.7,74,0.00,,,0.00,VWS V14.01,2013-01-26 02:22:00,
2013-01-25 21:28:00,22.8,15.8,30.01,WSW,238,4.0,7.8,74,0.00,,,0.00,VWS V14.01,2013-01-26 02:28:00,
2013-01-25 21:34:00,22.8,15.8,30.01,WSW,237,4.0,6.7,74,0.00,,,0.00,VWS V14.01,2013-01-26 02:34:00,
2013-01-25 21:39:00,22.8,15.8,30.01,SW,233,0.0,6.7,74,0.00,,,0.00,VWS V14.01,2013-01-26 02:39:00,
2013-01-25 21:45:00,22.6,15.9,30.01,SW,230,0.0,5.6,75,0.00,,,0.00,VWS V14.01,2013-01-26 02:45:00,
2013-01-25 21:51:00,22.6,15.9,30.01,WSW,237,3.4,6.7,75,0.00,,,0.00,VWS V14.01,2013-01-26 02:51:00,
2013-01-25 21:56:00,22.6,15.9,30.01,SW,236,4.0,6.7,75,0.00,,,0.00,VWS V14.01,2013-01-26 02:56:00,
2013-01-25 22:02:00,22.8,16.1,30.01,SW,233,4.0,6.7,75,0.00,,,0.00,VWS V14.01,2013-01-26 03:02:00,
2013-01-25 22:07:00,22.8,16.1,30.01,SW,225,0.0,5.6,75,0.00,,,0.00,VWS V14.01,2013-01-26 03:07:00,
2013-01-25 22:13:00,22.8,16.1,30.01,SW,234,4.0,6.7,75,0.00,,,0.00,VWS V14.01,2013-01-26 03:13:00,
2013-01-25 22:18:00,22.8,16.1,30.01,SW,233,4.0,6.7,75,0.00,,,0.00,VWS V14.01,2013-01-26 03:18:00,
2013-01-25 22:24:00,22.8,16.1,30.04,SW,234,0.0,0.0,75,0.00,,,0.00,VWS V14.01,2013-01-26 03:24:00,
2013-01-25 22:30:00,23.0,16.6,30.04,SW,233,4.7,7.8,76,0.00,,,0.00,VWS V14.01,2013-01-26 03:30:00,
2013-01-25 22:36:00,23.0,16.6,30.04,SW,236,4.7,8.9,76,0.00,,,0.00,VWS V14.01,2013-01-26 03:36:00,
2013-01-25 22:41:00,23.0,16.6,30.04,WSW,239,4.0,7.8,76,0.00,,,0.00,VWS V14.01,2013-01-26 03:41:00,
2013-01-25 22:47:00,23.0,16.6,30.04,WSW,241,3.4,5.6,76,0.00,,,0.00,VWS V14.01,2013-01-26 03:47:00,
2013-01-25 22:52:00,23.0,16.6,30.04,WSW,241,0.0,0.0,76,0.00,,,0.00,VWS V14.01,2013-01-26 03:52:00,
2013-01-25 22:57:00,23.0,16.6,30.04,WSW,241,0.0,0.0,76,0.00,,,0.00,VWS V14.01,2013-01-26 03:57:00,
2013-01-25 23:02:00,23.0,16.6,30.04,WSW,241,0.0,0.0,76,0.00,,,0.00,VWS V14.01,2013-01-26 04:02:00,
2013-01-25 23:08:00,23.0,16.6,30.04,WSW,245,0.0,0.0,76,0.00,,,0.00,VWS V14.01,2013-01-26 04:08:00,
2013-01-25 23:13:00,23.0,16.6,30.04,WSW,243,0.0,0.0,76,0.00,,,0.00,VWS V14.01,2013-01-26 04:13:00,
2013-01-25 23:19:00,22.8,16.4,30.04,WSW,237,3.4,6.7,76,0.00,,,0.00,VWS V14.01,2013-01-26 04:19:00,
2013-01-25 23:24:00,22.8,16.4,30.04,SW,236,4.0,7.8,76,0.00,,,0.00,VWS V14.01,2013-01-26 04:24:00,
2013-01-25 23:30:00,22.8,16.7,30.04,WSW,239,4.0,6.7,77,0.00,,,0.00,VWS V14.01,2013-01-26 04:30:00,
2013-01-25 23:36:00,22.8,16.7,30.04,WSW,239,3.4,6.7,77,0.00,,,0.00,VWS V14.01,2013-01-26 04:36:00,
2013-01-25 23:41:00,23.0,16.9,30.04,WSW,246,3.4,5.6,77,0.00,,,0.00,VWS V14.01,2013-01-26 04:41:00,
2013-01-25 23:47:00,23.0,16.9,30.04,WSW,246,3.4,5.6,77,0.00,,,0.00,VWS V14.01,2013-01-26 04:47:00,
2013-01-25 23:52:00,23.0,16.9,30.04,WSW,246,3.4,5.6,77,0.00,,,0.00,VWS V14.01,2013-01-26 04:52:00,
2013-01-25 23:57:00,23.0,16.9,30.04,WSW,242,0.0,0.0,77,0.00,,,0.00,VWS V14.01,2013-01-26 04:57:00,